| time (UTC) | temp C | wind direction | speed KPH | gust KPH | rain 1hr cm | rain 24hr cm | rain mn cm | humidity % | barometer mb |
| 20260505153049 | 0 | 32 | 0.0 | 0.0 | 0.00 | 0.15 | 0.13 | 92 | 1007.6 |
| 20260505151544 | 0 | 32 | 0.0 | 0.0 | 0.00 | 0.15 | 0.13 | 93 | 1007.5 |
| 20260505124523 | 0 | 32 | 0.0 | 0.0 | 0.00 | 0.15 | 0.13 | 93 | 1006.3 |
| 20260505123021 | 0 | 32 | 0.0 | 4.8 | 0.00 | 0.15 | 0.13 | 93 | 1006.2 |
| 20260505121519 | 0 | 30 | 0.0 | 0.0 | 0.00 | 0.15 | 0.13 | 93 | 1005.9 |
| 20260505120033 | 0 | 30 | 0.0 | 0.0 | 0.00 | 0.15 | 0.13 | 93 | 1005.9 |
| 20260505114517 | 0 | 30 | 0.0 | 0.0 | 0.00 | 0.15 | 0.13 | 93 | 1005.8 |
| 20260505113015 | 0 | 30 | 0.0 | 0.0 | 0.00 | 0.15 | 0.13 | 93 | 1005.5 |
| 20260505111523 | 0 | 30 | 0.0 | 0.0 | 0.00 | 0.15 | 0.13 | 93 | 1005.4 |
| 20260505101507 | 0 | 29 | 0.0 | 0.0 | 0.00 | 0.15 | 0.13 | 92 | 1004.8 |
| 20260505100006 | 0 | 29 | 0.0 | 0.0 | 0.00 | 0.15 | 0.13 | 92 | 1004.7 |
| 20260505094506 | 0 | 29 | 0.0 | 0.0 | 0.00 | 0.15 | 0.13 | 92 | 1004.6 |
| 20260505093004 | 0 | 29 | 0.0 | 0.0 | 0.00 | 0.15 | 0.13 | 92 | 1004.9 |
| 20260505091621 | 0 | 29 | 0.0 | 0.0 | 0.00 | 0.15 | 0.13 | 91 | 1004.5 |
| 20260505090122 | 0 | 29 | 0.0 | 0.0 | 0.00 | 0.15 | 0.13 | 91 | 1004.5 |
| 20260505084614 | 0 | 29 | 0.0 | 0.0 | 0.03 | 0.15 | 0.13 | 91 | 1004.3 |
| 20260505083107 | 0 | 29 | 0.0 | 0.0 | 0.03 | 0.15 | 0.13 | 91 | 1004.1 |
| 20260505081601 | 1 | 29 | 0.0 | 0.0 | 0.03 | 0.15 | 0.13 | 90 | 1004.2 |
| 20260505080059 | 1 | 28 | 0.0 | 0.0 | 0.05 | 0.15 | 0.13 | 90 | 1004.2 |
| 20260505074549 | 1 | 29 | 0.0 | 0.0 | 0.05 | 0.13 | 0.10 | 90 | 1004.3 |
| 20260505073054 | 1 | 29 | 0.0 | 0.0 | 0.08 | 0.13 | 0.10 | 90 | 1004.4 |
| 20260505071549 | 2 | 30 | 0.0 | 0.0 | 0.10 | 0.13 | 0.10 | 89 | 1004.3 |
| 20260505070050 | 2 | 5 | 0.0 | 0.0 | 0.08 | 0.10 | 0.08 | 88 | 1004.1 |
| 20260505064539 | 2 | 5 | 0.0 | 0.0 | 0.05 | 0.08 | 0.05 | 86 | 1004.0 |
| 20260505063040 | 3 | 5 | 0.0 | 0.0 | 0.03 | 0.05 | 0.03 | 85 | 1004.3 |
| 20260505061533 | 3 | 5 | 0.0 | 0.0 | 0.00 | 0.03 | 0.00 | 84 | 1004.2 |
| 20260505060051 | 4 | 5 | 0.0 | 0.0 | 0.00 | 0.03 | 0.00 | 84 | 1003.9 |
| 20260505054526 | 5 | 72 | 0.0 | 0.0 | 0.00 | 0.03 | 0.03 | 84 | 1003.6 |
| 20260505053022 | 6 | 46 | 0.0 | 0.0 | 0.00 | 0.03 | 0.03 | 82 | 1003.1 |
| 20260505051521 | 6 | 360 | 0.0 | 0.0 | 0.00 | 0.03 | 0.03 | 84 | 1003.2 |
| 20260505041514 | 7 | 178 | 0.0 | 0.0 | 0.00 | 0.03 | 0.03 | 76 | 1002.5 |
| 20260505040020 | 7 | 178 | 0.0 | 0.0 | 0.00 | 0.03 | 0.03 | 76 | 1002.4 |
| 20260505034512 | 7 | 178 | 0.0 | 0.0 | 0.00 | 0.03 | 0.03 | 75 | 1002.3 |
| 20260505033011 | 7 | 178 | 0.0 | 0.0 | 0.00 | 0.03 | 0.03 | 75 | 1002.3 |
| 20260505031509 | 7 | 178 | 0.0 | 0.0 | 0.00 | 0.03 | 0.03 | 75 | 1002.0 |
| 20260505030007 | 6 | 178 | 0.0 | 0.0 | 0.00 | 0.03 | 0.03 | 76 | 1001.8 |
| 20260505024506 | 6 | 178 | 0.0 | 0.0 | 0.00 | 0.03 | 0.03 | 77 | 1001.5 |
| 20260505023006 | 6 | 178 | 0.0 | 0.0 | 0.00 | 0.03 | 0.03 | 76 | 1001.4 |
| 20260505021505 | 7 | 178 | 0.0 | 0.0 | 0.00 | 0.03 | 0.03 | 73 | 1001.1 |
| 20260505020005 | 7 | 178 | 0.0 | 0.0 | 0.00 | 0.03 | 0.03 | 72 | 1000.9 |
| 20260505014505 | 8 | 178 | 0.0 | 0.0 | 0.00 | 0.03 | 0.03 | 72 | 1000.9 |
| 20260505013004 | 8 | 360 | 0.0 | 0.0 | 0.00 | 0.03 | 0.03 | 72 | 1000.8 |
| 20260505011503 | 8 | 199 | 0.0 | 0.0 | 0.00 | 0.03 | 0.03 | 72 | 1000.8 |
| 20260505010004 | 8 | 204 | 0.0 | 0.0 | 0.00 | 0.03 | 0.03 | 73 | 1000.8 |
| 20260505004506 | 8 | 218 | 0.0 | 0.0 | 0.00 | 0.03 | 0.03 | 73 | 1000.7 |
| 20260505003002 | 8 | 198 | 0.0 | 0.0 | 0.00 | 0.03 | 0.03 | 72 | 1000.8 |
| 20260505001502 | 8 | 200 | 0.0 | 3.2 | 0.00 | 0.03 | 0.03 | 73 | 1000.6 |
| 20260505000107 | 8 | 205 | 0.0 | 8.0 | 0.00 | 0.03 | 0.03 | 69 | 1000.6 |
| 20260504234559 | 10 | 267 | 0.0 | 12.9 | 0.00 | 0.03 | 0.03 | 59 | 1000.6 |
| 20260504233102 | 10 | 251 | 0.0 | 1.6 | 0.00 | 0.03 | 0.03 | 57 | 1000.4 |
| 20260504231558 | 11 | 302 | 0.0 | 9.7 | 0.00 | 0.03 | 0.03 | 54 | 999.9 |
| 20260504230059 | 11 | 334 | 0.0 | 1.6 | 0.00 | 0.03 | 0.03 | 52 | 999.8 |
| 20260504224558 | 12 | 343 | 0.0 | 8.0 | 0.00 | 0.03 | 0.03 | 50 | 999.6 |
| 20260504223115 | 13 | 293 | 0.0 | 9.7 | 0.00 | 0.03 | 0.03 | 50 | 999.3 |
| 20260504221558 | 12 | 328 | 0.0 | 4.8 | 0.03 | 0.03 | 0.03 | 53 | 999.5 |
| 20260504220055 | 11 | 338 | 0.0 | 3.2 | 0.03 | 0.03 | 0.03 | 63 | 999.6 |
| 20260504214555 | 10 | 290 | 0.0 | 0.0 | 0.03 | 0.03 | 0.03 | 66 | 1000.4 |
| 20260504213056 | 9 | 338 | 0.0 | 9.7 | 0.03 | 0.03 | 0.03 | 66 | 1000.5 |
| 20260504211634 | 10 | 338 | 0.0 | 4.8 | 0.00 | 0.00 | 0.00 | 61 | 1000.8 |
| 20260504210053 | 11 | 196 | 0.0 | 1.6 | 0.00 | 0.00 | 0.00 | 51 | 1000.3 |
| 20260504204550 | 11 | 196 | 0.0 | 1.6 | 0.00 | 0.00 | 0.00 | 57 | 1000.2 |
| 20260504203048 | 11 | 91 | 0.0 | 1.6 | 0.00 | 0.00 | 0.00 | 46 | 1000.2 |
| 20260504201547 | 12 | 40 | 0.0 | 9.7 | 0.00 | 0.00 | 0.00 | 45 | 1000.1 |
| 20260504200047 | 13 | 350 | 1.6 | 19.3 | 0.00 | 0.00 | 0.00 | 36 | 1000.0 |
| 20260504194551 | 15 | 350 | 0.0 | 8.0 | 0.00 | 0.00 | 0.00 | 34 | 999.8 |
| 20260504193047 | 15 | 351 | 0.0 | 12.9 | 0.00 | 0.00 | 0.00 | 34 | 999.9 |
| 20260504191605 | 15 | 288 | 3.2 | 20.9 | 0.00 | 0.00 | 0.00 | 34 | 1000.0 |
| 20260504190052 | 17 | 347 | 0.0 | 9.7 | 0.00 | 0.00 | 0.00 | 27 | 999.2 |
| 20260504184550 | 16 | 259 | 0.0 | 6.4 | 0.00 | 0.00 | 0.00 | 29 | 999.0 |
| 20260504183044 | 16 | 267 | 0.0 | 3.2 | 0.00 | 0.00 | 0.00 | 30 | 999.1 |
| 20260504181542 | 16 | 256 | 0.0 | 24.1 | 0.00 | 0.00 | 0.00 | 26 | 999.1 |
| 20260504180042 | 17 | 250 | 0.0 | 8.0 | 0.00 | 0.00 | 0.00 | 25 | 999.2 |
| 20260504174544 | 18 | 230 | 0.0 | 3.2 | 0.00 | 0.00 | 0.00 | 25 | 999.4 |
| 20260504173037 | 18 | 311 | 0.0 | 3.2 | 0.00 | 0.00 | 0.00 | 27 | 999.6 |
| 20260504171537 | 17 | 239 | 0.0 | 14.5 | 0.00 | 0.00 | 0.00 | 26 | 999.8 |